TimeCST,TemperatureF,Dew PointF,Humidity,Sea Level PressureIn,VisibilityMPH,Wind Direction,Wind SpeedMPH,Gust SpeedMPH,PrecipitationIn,Events,Conditions,WindDirDegrees,DateUTC
12:15 AM,47.8,41.9,80,30.09,10.0,SSW,6.9,-,N/A,,Overcast,200,2012-11-20 06:15:00
12:35 AM,47.7,41.9,80,30.09,7.0,South,5.8,-,N/A,,Overcast,190,2012-11-20 06:35:00
12:55 AM,47.5,41.9,81,30.09,7.0,South,4.6,-,N/A,,Overcast,190,2012-11-20 06:55:00
1:15 AM,47.3,41.9,82,30.08,7.0,South,4.6,-,N/A,,Overcast,180,2012-11-20 07:15:00
1:35 AM,46.6,41.9,84,30.08,7.0,South,3.5,-,N/A,,Overcast,190,2012-11-20 07:35:00
1:55 AM,46.6,41.9,84,30.08,7.0,SSW,3.5,-,N/A,,Overcast,210,2012-11-20 07:55:00
2:15 AM,46.9,42.1,83,30.08,7.0,SSW,3.5,-,N/A,,Overcast,200,2012-11-20 08:15:00
2:35 AM,46.4,41.9,84,30.08,7.0,SSW,3.5,-,N/A,,Overcast,200,2012-11-20 08:35:00
6:15 AM,45.5,42.6,90,30.09,7.0,Calm,Calm,-,N/A,,Overcast,0,2012-11-20 12:15:00
6:35 AM,45.5,42.3,88,30.09,7.0,Calm,Calm,-,N/A,,Overcast,0,2012-11-20 12:35:00
6:55 AM,45.1,42.3,90,30.10,7.0,Calm,Calm,-,N/A,,Overcast,0,2012-11-20 12:55:00
7:15 AM,45.1,42.6,91,30.11,7.0,Calm,Calm,-,N/A,,Overcast,0,2012-11-20 13:15:00
7:35 AM,45.7,42.3,88,30.11,5.0,Calm,Calm,-,N/A,,Overcast,0,2012-11-20 13:35:00
7:55 AM,45.9,43.0,90,30.11,5.0,Calm,Calm,-,N/A,,Overcast,0,2012-11-20 13:55:00
8:15 AM,46.8,43.2,87,30.11,5.0,Calm,Calm,-,N/A,,Overcast,0,2012-11-20 14:15:00
8:35 AM,47.5,43.3,86,30.12,5.0,Calm,Calm,-,N/A,,Haze,0,2012-11-20 14:35:00
8:55 AM,48.7,43.0,80,30.11,5.0,Calm,Calm,-,N/A,,Haze,0,2012-11-20 14:55:00
9:15 AM,50.0,43.2,77,30.12,5.0,North,3.5,-,N/A,,Haze,350,2012-11-20 15:15:00
9:35 AM,50.0,43.9,79,30.12,5.0,Calm,Calm,-,N/A,,Haze,0,2012-11-20 15:35:00
9:55 AM,50.9,44.6,79,30.12,5.0,Calm,Calm,-,N/A,,Haze,0,2012-11-20 15:55:00
10:15 AM,51.4,45.3,80,30.12,5.0,NNW,3.5,-,N/A,,Haze,340,2012-11-20 16:15:00
10:35 AM,52.0,45.9,80,30.12,5.0,North,4.6,-,N/A,,Haze,10,2012-11-20 16:35:00
10:55 AM,52.7,45.7,77,30.11,7.0,Calm,Calm,-,N/A,,Mostly Cloudy,0,2012-11-20 16:55:00
11:15 AM,53.4,45.9,76,30.11,7.0,Calm,Calm,-,N/A,,Overcast,0,2012-11-20 17:15:00
11:35 AM,53.4,46.0,76,30.11,5.0,Calm,Calm,-,N/A,,Haze,0,2012-11-20 17:35:00
11:55 AM,54.5,46.4,74,30.11,7.0,NW,3.5,-,N/A,,Scattered Clouds,320,2012-11-20 17:55:00
12:15 PM,56.3,46.6,70,30.10,7.0,North,3.5,-,N/A,,Scattered Clouds,10,2012-11-20 18:15:00
12:35 PM,56.3,46.2,69,30.10,7.0,NNW,8.1,-,N/A,,Clear,330,2012-11-20 18:35:00
12:55 PM,56.1,45.7,68,30.10,7.0,NW,3.5,-,N/A,,Scattered Clouds,310,2012-11-20 18:55:00
1:15 PM,56.5,45.9,68,30.09,7.0,NNW,5.8,-,N/A,,Scattered Clouds,330,2012-11-20 19:15:00
1:35 PM,56.5,45.7,67,30.09,7.0,NNW,6.9,-,N/A,,Scattered Clouds,340,2012-11-20 19:35:00
2:15 PM,57.2,46.2,67,30.09,7.0,North,10.4,-,N/A,,Scattered Clouds,350,2012-11-20 20:15:00
2:35 PM,56.8,45.5,66,30.09,7.0,North,6.9,-,N/A,,Scattered Clouds,350,2012-11-20 20:35:00
2:55 PM,57.0,45.9,66,30.09,7.0,North,9.2,-,N/A,,Clear,350,2012-11-20 20:55:00
3:15 PM,56.8,45.5,66,30.10,7.0,NNW,6.9,-,N/A,,Clear,340,2012-11-20 21:15:00
3:35 PM,56.3,45.5,67,30.10,10.0,North,6.9,-,N/A,,Clear,350,2012-11-20 21:35:00
3:55 PM,55.2,45.5,70,30.12,7.0,North,6.9,-,N/A,,Clear,350,2012-11-20 21:55:00
4:15 PM,53.6,44.8,72,30.12,7.0,NNW,4.6,-,N/A,,Clear,340,2012-11-20 22:15:00
4:35 PM,52.3,44.4,74,30.12,7.0,NNW,4.6,-,N/A,,Clear,340,2012-11-20 22:35:00
4:55 PM,50.2,43.3,77,30.13,7.0,Calm,Calm,-,N/A,,Clear,0,2012-11-20 22:55:00
5:15 PM,49.6,43.9,81,30.13,7.0,Calm,Calm,-,N/A,,Clear,0,2012-11-20 23:15:00
5:35 PM,46.6,42.1,84,30.14,7.0,WNW,3.5,-,N/A,,Clear,300,2012-11-20 23:35:00
5:55 PM,47.1,43.0,86,30.15,7.0,NW,5.8,-,N/A,,Clear,320,2012-11-20 23:55:00
6:15 PM,46.4,42.3,85,30.16,7.0,NNW,4.6,-,N/A,,Clear,330,2012-11-21 00:15:00
6:35 PM,43.0,40.3,90,30.16,7.0,Calm,Calm,-,N/A,,Clear,0,2012-11-21 00:35:00
6:55 PM,43.9,42.1,93,30.15,7.0,Calm,Calm,-,N/A,,Clear,0,2012-11-21 00:55:00
7:15 PM,41.9,38.8,89,30.15,5.0,Calm,Calm,-,N/A,,Clear,0,2012-11-21 01:15:00
7:35 PM,39.7,38.5,95,30.16,4.0,Calm,Calm,-,N/A,,Clear,0,2012-11-21 01:35:00
7:55 PM,36.9,35.8,96,30.16,3.0,Calm,Calm,-,N/A,,Clear,0,2012-11-21 01:55:00
8:15 PM,38.8,38.1,97,30.17,1.0,Calm,Calm,-,N/A,,Mist,0,2012-11-21 02:15:00
8:35 PM,37.2,36.5,97,30.17,2.5,Calm,Calm,-,N/A,,Mostly Cloudy,0,2012-11-21 02:35:00
8:55 PM,35.6,34.9,97,30.17,0.2,Calm,Calm,-,N/A,Rain,Heavy Rain,0,2012-11-21 02:55:00
9:15 PM,35.6,35.6,100,30.18,0.2,Calm,Calm,-,N/A,Fog,Fog,0,2012-11-21 03:15:00
9:35 PM,33.1,32.9,99,30.17,0.2,Calm,Calm,-,N/A,Rain,Light Rain,0,2012-11-21 03:35:00
9:55 PM,32.0,32.0,100,30.17,0.2,Calm,Calm,-,N/A,Fog,Fog,0,2012-11-21 03:55:00
10:15 PM,32.4,32.4,100,30.17,0.2,SSE,3.5,-,N/A,,Light Drizzle,160,2012-11-21 04:15:00
10:35 PM,32.9,32.9,100,30.17,0.2,Calm,Calm,-,N/A,Fog,Fog,0,2012-11-21 04:35:00
10:55 PM,33.8,33.8,100,30.18,0.2,Calm,Calm,-,N/A,Fog,Fog,0,2012-11-21 04:55:00
11:15 PM,34.9,34.9,100,30.18,0.2,Calm,Calm,-,N/A,Fog,Fog,0,2012-11-21 05:15:00
11:35 PM,35.8,35.8,100,30.18,0.2,Calm,Calm,-,N/A,Snow,Light Snow,0,2012-11-21 05:35:00
11:55 PM,37.0,37.0,100,30.19,0.2,Calm,Calm,-,N/A,Rain,Rain,0,2012-11-21 05:55:00